FW0887 Weather Reports


time (UTC)temp
C
wind
direction
speed
KPH
gust
KPH
rain 1hr
cm
rain 24hr
cm
rain mn
cm
humidity
%
barometer
mb
20260503234518 15 98 3.2 6.4 0.00 0.00 0.00 63 1012.5
20260503233016 14 115 1.6 4.8 0.00 0.00 0.00 66 1012.9
20260503231648 14 293 1.6 1.6 0.00 0.00 0.00 67 1014.6
20260503231515 14 282 0.0 3.2 0.00 0.00 0.00 67 1013.2
20260503230018 14 282 0.0 0.0 0.00 0.00 0.00 68 1013.1
20260503224512 15 282 0.0 1.6 0.00 0.00 0.00 67 1013.0
20260503223010 15 283 0.0 3.2 0.00 0.00 0.00 65 1012.7
20260503221637 15 0.0 0.0 0.00 0.00 0.00 64 1014.1
20260503221507 15 282 0.0 0.0 0.00 0.00 0.00 66 1012.7
20260503220004 15 282 0.0 0.0 0.00 0.00 0.00 64 1012.6
20260503214503 15 281 0.0 1.6 0.00 0.00 0.00 63 1012.6
20260503213004 15 281 0.0 1.6 0.00 0.00 0.00 61 1012.6
20260503211628 16 0.0 0.0 0.00 0.00 0.00 60 1013.4
20260503211503 16 282 0.0 1.6 0.00 0.00 0.00 61 1012.3
20260503210002 16 280 0.0 3.2 0.00 0.00 0.00 60 1012.0
20260503204502 17 286 0.0 1.6 0.00 0.00 0.00 57 1012.2
20260503203001 17 283 0.0 1.6 0.00 0.00 0.00 54 1012.1
20260503201600 18 279 0.0 1.6 0.00 0.00 0.00 52 1012.1
20260503201405 18 0.0 1.6 0.00 0.00 0.00 51 1013.3
20260503200101 18 279 0.0 3.2 0.00 0.00 0.00 51 1012.0
20260503194600 19 279 1.6 3.2 0.00 0.00 0.00 49 1012.0
20260503193058 20 277 0.0 3.2 0.00 0.00 0.00 47 1012.0
20260503191705 20 0.0 0.0 0.00 0.00 0.00 45 1012.7
20260503191604 20 281 0.0 1.6 0.00 0.00 0.00 46 1011.8
20260503184557 20 309 0.0 4.8 0.00 0.00 0.00 42 1011.4
20260503183057 21 221 0.0 3.2 0.00 0.00 0.00 43 1011.3
20260503181632 22 225 3.2 3.2 0.00 0.00 0.00 37 1011.7
20260503181604 22 224 0.0 3.2 0.00 0.00 0.00 37 1011.1
20260503174556 22 228 0.0 3.2 0.00 0.00 0.00 40 1011.0
20260503173100 22 229 1.6 6.4 0.00 0.00 0.00 39 1010.9
20260503171559 22 325 1.6 8.0 0.00 0.00 0.00 39 1010.9
20260503171403 23 248 4.8 8.0 0.00 0.00 0.00 38 1011.6
20260503171358 23 225 3.2 4.8 0.00 0.00 0.00 39 1011.6
20260503081529 18 298 0.0 3.2 0.00 0.00 0.00 56 1016.1
20260503081501 18 293 1.6 3.2 0.00 0.00 0.00 55 1017.2
20260503071514 15 298 0.0 3.2 0.00 0.00 0.00 62 1016.4
20260503071245 14 0.0 1.6 0.00 0.00 0.00 62 1017.5
20260503060109 8 229 0.0 1.6 0.00 0.00 0.00 83 1016.8
20260503054601 6 238 0.0 1.6 0.00 0.00 0.00 81 1016.7
20260503053055 5 237 0.0 1.6 0.00 0.00 0.00 81 1016.6
20260503051554 5 238 0.0 0.0 0.00 0.00 0.00 81 1016.8
20260503051522 5 0.0 0.0 0.00 0.00 0.00 80 1017.3
20260503050052 5 238 0.0 0.0 0.00 0.00 0.00 80 1016.7
20260503044601 5 238 0.0 0.0 0.00 0.00 0.00 80 1016.8
20260503043057 5 238 0.0 0.0 0.00 0.00 0.00 80 1016.7
20260503041552 5 238 0.0 1.6 0.00 0.00 0.00 80 1016.8
20260503041432 5 0.0 0.0 0.00 0.00 0.00 79 1017.5
20260503040051 5 238 0.0 0.0 0.00 0.00 0.00 79 1016.8
20260503034550 5 238 0.0 1.6 0.00 0.00 0.00 78 1016.7
20260503033103 5 238 0.0 1.6 0.00 0.00 0.00 78 1016.8
20260503031548 5 238 0.0 3.2 0.00 0.00 0.00 79 1016.8
20260503031404 6 0.0 0.0 0.00 0.00 0.00 79 1017.8
20260503030047 5 238 0.0 3.2 0.00 0.00 0.00 78 1016.9
20260503024544 6 238 0.0 0.0 0.00 0.00 0.00 77 1016.8
20260503023055 6 238 0.0 1.6 0.00 0.00 0.00 77 1016.8
20260503021545 6 238 0.0 1.6 0.00 0.00 0.00 77 1016.9
20260503021136 6 0.0 1.6 0.00 0.00 0.00 77 1017.8
20260503020039 6 238 0.0 1.6 0.00 0.00 0.00 77 1017.0
20260503014536 6 238 0.0 0.0 0.00 0.00 0.00 76 1017.0
20260503013036 6 236 0.0 3.2 0.00 0.00 0.00 76 1016.9
20260503011545 6 236 0.0 1.6 0.00 0.00 0.00 76 1017.0
20260503011539 7 0.0 0.0 0.00 0.00 0.00 76 1017.9
20260503010034 7 236 0.0 0.0 0.00 0.00 0.00 76 1017.1
20260503004530 7 234 0.0 0.0 0.00 0.00 0.00 75 1017.2
20260503003029 7 234 0.0 0.0 0.00 0.00 0.00 75 1017.1
20260503001527 7 235 0.0 1.6 0.00 0.00 0.00 74 1017.2
20260503001416 8 225 1.6 1.6 0.00 0.00 0.00 74 1018.1
20260503000026 7 234 0.0 1.6 0.00 0.00 0.00 74 1017.2